Fremont, NE

12:07 AM CDT on June 24, 2017 (GMT -0500)
Fremont Municipal

Weather History for KFET - February, 2013

Change the Weather History Date:

Friday, February 1, 2013

  Actual Average Record
Temperature  
Mean Temperature 14 °F -  
Max Temperature 29 °F 36 °F 68 °F (1989)
Min Temperature 0 °F 14 °F -18 °F (1979)
Degree Days  
Heating Degree Days 50    
Moisture  
Dew Point 10 °F    
Average Humidity 75    
Maximum Humidity 86    
Minimum Humidity 67    
Precipitation  
Precipitation 0.00 in - - ()
Sea Level Pressure  
Sea Level Pressure 30.19 in    
Wind  
Wind Speed 6 mph (South)    
Max Wind Speed 18 mph    
Max Gust Speed 22 mph    
Visibility 10 miles    
Events      
Averages and records for this station are not official NWS values.
T = Trace of Precipitation, MM = Missing Value Source: NWS Daily Summary

Daily Weather History Graph

Daily Weather History Graph

Search for Another Location

Airport or City:

Trip Planner

Search our weather history database for the weather conditions in past years. The results will help you decide how hot, cold, wet, or windy it might be!

Date:

Astronomy

Feb. 01, 2013 Rise Set
Actual Time 7:37 AM CST 5:42 PM CST
Civil Twilight 7:08 AM CST 6:11 PM CST
Nautical Twilight 6:34 AM CST 6:45 PM CST
Astronomical Twilight 6:02 AM CST 7:17 PM CST
Moon 11:56 PM CST (2/1) 10:06 AM CST (2/1)
Length of Visible Light 11h 03m
Length of Day
10h 05m
Waning Gibbous, 70% of the Moon is Illuminated
Feb 1
Waning Gibbous
Feb 3
Last Quarter
Feb 10
New
Feb 17
First Quarter
Feb 25
Full

Hourly Weather History & Observations

Time (CST) Temp. Windchill Dew Point Humidity Pressure Visibility Wind Dir Wind Speed Gust Speed Precip Events Conditions
12:15 AM 0.1 °F - -4.9 °F 79% 30.41 in 10.0 mi Calm Calm - N/A   Clear
12:35 AM 0.3 °F -7.5 °F -5.1 °F 78% 30.40 in 10.0 mi West 3.5 mph - N/A   Clear
12:55 AM 0.5 °F -9.3 °F -4.9 °F 78% 30.40 in 10.0 mi WSW 4.6 mph - N/A   Clear
1:15 AM 1.0 °F -6.7 °F -4.9 °F 76% 30.40 in 10.0 mi SW 3.5 mph - N/A   Clear
1:35 AM 1.6 °F - -4.4 °F 76% 30.38 in 10.0 mi Calm Calm - N/A   Clear
1:55 AM 0.9 °F - -4.4 °F 79% 30.37 in 10.0 mi Calm Calm - N/A   Clear
2:15 AM 1.4 °F - -4.0 °F 78% 30.37 in 10.0 mi Calm Calm - N/A   Clear
2:35 AM 0.9 °F - -3.8 °F 81% 30.36 in 10.0 mi Calm Calm - N/A   Clear
2:55 AM 0.7 °F - -3.5 °F 83% 30.35 in 10.0 mi Calm Calm - N/A   Clear
3:15 AM 0.5 °F - -3.3 °F 84% 30.33 in 10.0 mi Calm Calm - N/A   Clear
3:35 AM 1.0 °F -6.7 °F -3.3 °F 82% 30.35 in 10.0 mi South 3.5 mph - N/A   Scattered Clouds
3:55 AM 2.5 °F - -0.9 °F 86% 30.35 in 10.0 mi Calm Calm - N/A   Mostly Cloudy
4:15 AM 3.7 °F - -1.8 °F 78% 30.36 in 10.0 mi Calm Calm - N/A   Overcast
4:35 AM 4.1 °F -3.2 °F -2.0 °F 76% 30.35 in 10.0 mi SSW 3.5 mph - N/A   Overcast
4:55 AM 4.6 °F - -2.2 °F 73% 30.33 in 10.0 mi Calm Calm - N/A   Overcast
5:15 AM 5.0 °F -4.1 °F -2.2 °F 72% 30.34 in 10.0 mi South 4.6 mph - N/A   Overcast
5:35 AM 5.2 °F -1.9 °F -1.3 °F 75% 30.34 in 10.0 mi South 3.5 mph - N/A   Overcast
6:15 AM 5.9 °F -1.1 °F -1.3 °F 72% 30.32 in 10.0 mi SSE 3.5 mph - N/A   Overcast
6:35 AM 6.3 °F -4.1 °F -0.8 °F 73% 30.32 in 10.0 mi SSE 5.8 mph - N/A   Overcast
6:55 AM 6.6 °F -3.7 °F -0.6 °F 72% 30.31 in 10.0 mi SSE 5.8 mph - N/A   Overcast
7:15 AM 6.8 °F -5.9 °F 0.5 °F 75% 30.30 in 10.0 mi SSE 8.1 mph - N/A   Overcast
7:35 AM 6.8 °F -5.9 °F 0.1 °F 74% 30.30 in 10.0 mi SSE 8.1 mph - N/A   Overcast
8:15 AM 6.1 °F -7.8 °F -0.4 °F 75% 30.29 in 10.0 mi SSE 9.2 mph - N/A   Scattered Clouds
8:35 AM 7.0 °F -5.7 °F -0.4 °F 72% 30.29 in 10.0 mi SE 8.1 mph - N/A   Clear
8:55 AM 7.7 °F -6.6 °F -0.4 °F 70% 30.28 in 10.0 mi SE 10.4 mph - N/A   Clear
9:15 AM 9.1 °F -5.6 °F 0.9 °F 69% 30.27 in 10.0 mi SE 11.5 mph - N/A   Clear
9:35 AM 10.2 °F -5.0 °F 1.4 °F 68% 30.26 in 10.0 mi SSE 12.7 mph 17.3 mph N/A   Clear
9:55 AM 10.8 °F -5.6 °F 1.9 °F 68% 30.25 in 10.0 mi SSE 15.0 mph 21.9 mph N/A   Clear
10:15 AM 11.3 °F -6.5 °F 2.3 °F 67% 30.24 in 10.0 mi SSE 18.4 mph - N/A   Clear
10:35 AM 12.0 °F -5.1 °F 3.0 °F 67% 30.23 in 10.0 mi SSE 17.3 mph - N/A   Scattered Clouds
10:55 AM 12.0 °F -2.0 °F 3.6 °F 69% 30.24 in 10.0 mi SE 11.5 mph 15.0 mph N/A   Scattered Clouds
11:15 AM 13.8 °F -1.1 °F 5.0 °F 68% 30.23 in 10.0 mi SSE 13.8 mph 18.4 mph N/A   Scattered Clouds
11:35 AM 14.4 °F -1.0 °F 5.7 °F 69% 30.21 in 10.0 mi SSE 15.0 mph - N/A   Mostly Cloudy
11:55 AM 15.3 °F 2.0 °F 7.0 °F 70% 30.19 in 10.0 mi SSE 11.5 mph 19.6 mph N/A   Overcast
12:15 PM 16.5 °F 0.8 °F 8.2 °F 70% 30.17 in 10.0 mi South 17.3 mph - N/A   Overcast
12:35 PM 17.2 °F 3.3 °F 9.7 °F 72% 30.14 in 10.0 mi SSE 13.8 mph 21.9 mph N/A   Overcast
12:55 PM 19.0 °F 4.0 °F 11.7 °F 73% 30.12 in 10.0 mi SSE 17.3 mph 21.9 mph N/A   Mostly Cloudy
1:15 PM 21.2 °F 6.8 °F 13.8 °F 73% 30.10 in 10.0 mi SSE 17.3 mph 21.9 mph N/A   Overcast
1:35 PM 22.8 °F 13.6 °F 16.0 °F 75% 30.11 in 10.0 mi South 8.1 mph - N/A   Overcast
1:55 PM 25.5 °F 12.9 °F 18.5 °F 75% 30.10 in 10.0 mi South 16.1 mph 20.7 mph N/A   Overcast
2:15 PM 26.6 °F 14.7 °F 19.8 °F 75% 30.09 in 10.0 mi South 15.0 mph 20.7 mph N/A   Overcast
2:35 PM 27.0 °F 18.0 °F 20.1 °F 75% 30.07 in 10.0 mi South 9.2 mph 18.4 mph N/A   Overcast
3:15 PM 29.1 °F 18.4 °F 21.9 °F 74% 30.06 in 10.0 mi South 13.8 mph 20.7 mph N/A   Overcast
3:35 PM 29.3 °F 18.6 °F 22.3 °F 75% 30.06 in 10.0 mi South 13.8 mph 17.3 mph N/A   Mostly Cloudy
3:55 PM 29.3 °F 18.6 °F 21.9 °F 74% 30.05 in 10.0 mi South 13.8 mph 20.7 mph N/A   Scattered Clouds
4:15 PM 29.1 °F 18.9 °F 22.1 °F 75% 30.04 in 10.0 mi South 12.7 mph - N/A   Mostly Cloudy
4:35 PM 29.3 °F 20.2 °F 22.1 °F 75% 30.04 in 10.0 mi South 10.4 mph - N/A   Overcast
4:55 PM 29.5 °F 20.4 °F 22.1 °F 74% 30.04 in 10.0 mi South 10.4 mph - N/A   Overcast
5:15 PM 29.7 °F 19.6 °F 21.9 °F 73% 30.04 in 10.0 mi South 12.7 mph - N/A   Overcast
5:35 PM 29.7 °F 20.1 °F 21.7 °F 72% 30.04 in 10.0 mi South 11.5 mph 16.1 mph N/A   Overcast
5:55 PM 29.3 °F 18.6 °F 21.2 °F 72% 30.04 in 10.0 mi South 13.8 mph 19.6 mph N/A   Overcast
6:15 PM 29.3 °F 20.8 °F 20.8 °F 71% 30.04 in 10.0 mi South 9.2 mph - N/A   Overcast
6:35 PM 28.9 °F 19.2 °F 20.5 °F 71% 30.04 in 10.0 mi South 11.5 mph 16.1 mph N/A   Mostly Cloudy
6:55 PM 28.9 °F 20.4 °F 20.7 °F 71% 30.04 in 10.0 mi South 9.2 mph 17.3 mph N/A   Mostly Cloudy
7:15 PM 28.6 °F 21.5 °F 20.8 °F 73% 30.04 in 10.0 mi South 6.9 mph - N/A   Scattered Clouds
7:35 PM 28.4 °F 20.4 °F 21.2 °F 74% 30.03 in 10.0 mi South 8.1 mph 17.3 mph N/A   Mostly Cloudy
7:55 PM 28.4 °F 19.1 °F 21.2 °F 74% 30.03 in 10.0 mi South 10.4 mph 16.1 mph N/A   Overcast
8:15 PM 28.8 °F 18.4 °F 21.2 °F 73% 30.04 in 10.0 mi South 12.7 mph 18.4 mph N/A   Overcast
8:35 PM 28.8 °F 19.0 °F 21.2 °F 73% 30.03 in 10.0 mi SSW 11.5 mph 18.4 mph N/A   Overcast
8:55 PM 28.4 °F 19.1 °F 21.2 °F 74% 30.04 in 10.0 mi SSW 10.4 mph 16.1 mph N/A   Scattered Clouds
9:15 PM 28.2 °F 20.2 °F 21.2 °F 75% 30.04 in 10.0 mi SSW 8.1 mph - N/A   Clear
9:35 PM 28.2 °F 21.0 °F 21.6 °F 76% 30.05 in 10.0 mi SW 6.9 mph - N/A   Mostly Cloudy
9:55 PM 28.4 °F 18.5 °F 21.9 °F 77% 30.05 in 10.0 mi SW 11.5 mph - N/A   Overcast
10:15 PM 28.8 °F 22.6 °F 22.3 °F 77% 30.05 in 10.0 mi SW 5.8 mph - N/A   Overcast
10:35 PM 28.8 °F 25.0 °F 23.0 °F 79% 30.05 in 10.0 mi SSW 3.5 mph - N/A   Overcast
10:55 PM 29.1 °F 24.1 °F 23.7 °F 80% 30.05 in 10.0 mi WSW 4.6 mph - N/A   Overcast
11:15 PM 29.1 °F 23.0 °F 24.4 °F 83% 30.05 in 10.0 mi WSW 5.8 mph - N/A   Overcast
11:35 PM 29.1 °F 21.3 °F 25.2 °F 85% 30.06 in 10.0 mi West 8.1 mph - N/A   Mostly Cloudy
11:55 PM 28.6 °F 21.5 °F 24.8 °F 86% 30.06 in 10.0 mi West 6.9 mph - N/A   Overcast